Weather Roundup
Issued by NWS Chicago, IL

Home | Current Version | Previous Version | Graphics & Text | Print | Product List | Glossary On
Versions: 1 2 3 4 5 6 7 8 9 10 11 12 13 14 15 16 17 18 19 20 21 22 23 24 25 26 27 28 29 30 31 32 33 34 35 36 37 38 39 40 41 42 43 44 45 46 47 48 49 50
000
NZUS59 KLOT 260906
HRRLOT

CHICAGO AREA WEATHER ROUNDUP
NATIONAL WEATHER SERVICE CHICAGO/ROMEOVILLE IL
300 AM CST FRI DEC 26 2014

NOTE: "FAIR" INDICATES FEW OR NO CLOUDS BELOW 12,000 FEET WITH NO
SIGNIFICANT WEATHER AND/OR OBSTRUCTIONS TO VISIBILITY.

* THESE STATIONS ARE NOT UNDER NWS QUALITY CONTROL. THEY ALSO MAY NOT
  REPORT WEATHER SUCH AS PRECIPITATION OR FOG.

ILZ005-006-012>014-019>023-261000-
NORTHEAST ILLINOIS

CITY           SKY/WX    TMP DP  RH WIND       PRES   REMARKS
OHARE          MOCLDY    37  32  82 S12       29.98F
MIDWAY         PTCLDY    38  33  82 S14       30.00F
AURORA         PTCLDY    35  30  82 S8        29.99S WCI  29
LANSING*       CLEAR     35  32  88 S10       30.02F WCI  28
JOLIET*        CLEAR     35  32  87 S7        30.01F WCI  30
WAUKEGAN       CLOUDY    40  33  76 SW17      29.96F
DUPAGE AIRPORT PTCLDY    36  32  85 S14       29.98S
WHEELING       MOCLDY    37  32  82 S10       30.00F
KANKAKEE*      CLEAR     34  32  91 S13       30.03F WCI  25
MORRIS*        CLEAR     33  32  96 S6        29.99F WCI  27
LEWIS AIRPORT* CLEAR     34  32  93 S8        30.00F WCI  27
NORTHERLY IS     N/A     39  32  76 S12         N/A
$$

WIZ051-052-058>065-066-070>072-261000-
SOUTHEAST WISCONSIN

CITY           SKY/WX    TMP DP  RH WIND       PRES   REMARKS
MILWAUKEE      CLOUDY    39  33  79 SW10      29.95F
KENOSHA*       CLOUDY    40  34  79 SW14      29.95F
RACINE*        CLOUDY    39  33  79 S8        29.97F
BURLINGTON     CLOUDY    36  33  87 S12G17    29.95S
WAUKESHA       CLOUDY    36  32  87 S8        29.95S
WEST BEND      MOCLDY    36  32  87 S5        29.93F
$$

INZ001>003-010>013-019-020-261000-
NORTHWEST INDIANA

CITY           SKY/WX    TMP DP  RH WIND       PRES   REMARKS
GARY*          CLEAR     38  30  72 S8        30.03F
MICHIGAN CITY* NOT AVBL
RENSSELAER*    NOT AVBL
VALPARAISO     CLEAR     34  30  85 S8        30.05F WCI  27
$$

LMZ740>746-261000-
SOUTHERN LAKE MICHIGAN

STATION/POSITION TIME  SKY/WX   TEMP WIND        PRES    VSBY
                                AIR  DIR/SP/G
                 (UTC)          (F)  (DEG/KT/KT) (MB)    (MI)
HARRISON CRIB    0900            38  190/ 23/ 27   N/A
BURNHAM HARBOR   0900            38  200/ 12/ 15   N/A
CALUMET HARBOR   0900            37  170/ 11/ 14 1015.1F
BURNS HARBOR     NOT AVBL
MICHIGAN CITY    0900            37  150/ 15/ 20   N/A
$$

ABBREVIATIONS USED IN REMARKS
   TC - TEMPERATURE IN CELSIUS
  WCI - WIND CHILL INDEX
   HX - HEAT INDEX
  VSB - VISIBILITY
$$


USA.gov is the U.S. government's official web portal to all federal, state and local government web resources and services.